Regional Weather Roundup
Issued by NWS Goodland, KS

Home | Current Version | Previous Version | Graphics & Text | Print | Product List | Glossary On
Versions: 1 2 3 4 5 6 7 8 9 10 11 12 13 14 15 16 17 18 19 20 21 22 23 24 25 26 27 28 29 30 31 32 33 34 35 36 37 38 39 40 41 42 43 44 45 46 47 48 49 50
000
ASUS43 KGLD 200259
RWRGLD

GOODLAND FORECAST AREA HOURLY WEATHER ROUNDUP
NATIONAL WEATHER SERVICE GOODLAND KS
900 PM MDT WED JUL 19 2017

...OFFICIAL OBSERVATIONS...

CITY           SKY/WX    TMP DP  RH WIND       PRES   REMARKS
GOODLAND KS    CLEAR     78  62  57 S9        30.00R
HILL CITY KS   CLEAR     88  59  37 S6        29.96R
IMPERIAL NEB   CLEAR     88  54  31 S12       29.95R
MCCOOK NEB     CLEAR     87  59  38 S12       29.93R
AKRON CO       CLOUDY    85  49  28 W16       30.06R
BURLINGTON CO  CLEAR     76  58  53 S10       30.04R
LIMON CO       CLOUDY    79  52  38 W10       30.14R
$$

...UNOFFICIAL OBSERVATIONS...

CITY           SKY/WX    TMP DP  RH WIND       PRES   REMARKS
LENORA KS        N/A     81  32  17 MISG        N/A
NORTON KS      CLEAR     86  54  32 S9        29.95R
SHARON SPRINGS   N/A     83  59  44 SE10        N/A
TRENTON NEB      N/A     86  32  14 S8          N/A
KIT CARSON CO    N/A     80  57  44 CALM        N/A
YUMA CO        FAIR      77  61  57 S8        30.00R
$$




USA.gov is the U.S. government's official web portal to all federal, state and local government web resources and services.